Year,Month,Day,Hour,Minute,Value (Times are PST for temperature in C)
2019,03,28,00,00,5.60
2019,03,28,00,01,5.60
2019,03,28,00,02,5.60
2019,03,28,00,03,5.60
2019,03,28,00,04,5.60
2019,03,28,00,05,5.60
2019,03,28,00,06,5.60
2019,03,28,00,07,5.60
2019,03,28,00,08,5.50
2019,03,28,00,09,5.50
2019,03,28,00,10,5.50
2019,03,28,00,11,5.50
2019,03,28,00,12,5.50
2019,03,28,00,13,5.40
2019,03,28,00,14,5.40
2019,03,28,00,15,5.40
2019,03,28,00,16,5.40
2019,03,28,00,17,5.40
2019,03,28,00,18,5.30
2019,03,28,00,19,5.30
2019,03,28,00,20,5.30
2019,03,28,00,21,5.20
2019,03,28,00,22,5.20
2019,03,28,00,23,5.20
2019,03,28,00,24,5.10
2019,03,28,00,25,5.10
2019,03,28,00,26,5.10
2019,03,28,00,27,5.10
2019,03,28,00,28,5.10
2019,03,28,00,29,5.00
2019,03,28,00,30,5.00
2019,03,28,00,31,5.00
2019,03,28,00,32,4.90
2019,03,28,00,33,4.90
2019,03,28,00,34,4.90
2019,03,28,00,35,4.90
2019,03,28,00,36,4.80
2019,03,28,00,37,4.80
2019,03,28,00,38,4.80
2019,03,28,00,39,4.70
2019,03,28,00,40,4.70
2019,03,28,00,41,4.70
2019,03,28,00,42,4.70
2019,03,28,00,43,4.70
2019,03,28,00,44,4.70
2019,03,28,00,45,4.60
2019,03,28,00,46,4.60
2019,03,28,00,47,4.60
2019,03,28,00,48,4.50
2019,03,28,00,49,4.50
2019,03,28,00,50,4.50
2019,03,28,00,51,4.50
2019,03,28,00,52,4.40
2019,03,28,00,53,4.40
2019,03,28,00,54,4.40
2019,03,28,00,55,4.40
2019,03,28,00,56,4.30
2019,03,28,00,57,4.30
2019,03,28,00,58,4.30
2019,03,28,00,59,4.30
2019,03,28,01,00,4.20
2019,03,28,01,01,4.20
2019,03,28,01,02,4.20
2019,03,28,01,03,4.20
2019,03,28,01,04,4.20
2019,03,28,01,05,4.20
2019,03,28,01,06,4.10
2019,03,28,01,07,4.10
2019,03,28,01,08,4.10
2019,03,28,01,09,4.10
2019,03,28,01,10,4.10
2019,03,28,01,11,4.10
2019,03,28,01,12,4.00
2019,03,28,01,13,4.00
2019,03,28,01,14,4.00
2019,03,28,01,15,4.00
2019,03,28,01,16,4.00
2019,03,28,01,17,4.10
2019,03,28,01,18,4.10
2019,03,28,01,19,4.10
2019,03,28,01,20,4.00
2019,03,28,01,21,4.00
2019,03,28,01,22,4.10
2019,03,28,01,23,4.10
2019,03,28,01,24,4.10
2019,03,28,01,25,4.10
2019,03,28,01,26,4.10
2019,03,28,01,27,4.00
2019,03,28,01,28,4.00
2019,03,28,01,29,4.00
2019,03,28,01,30,4.00
2019,03,28,01,31,3.90
2019,03,28,01,32,3.90
2019,03,28,01,33,3.90
2019,03,28,01,34,3.90
2019,03,28,01,35,3.90
2019,03,28,01,36,3.90
2019,03,28,01,37,3.90
2019,03,28,01,38,3.80
2019,03,28,01,39,3.80
2019,03,28,01,40,3.80
2019,03,28,01,41,3.80
2019,03,28,01,42,3.80
2019,03,28,01,43,3.70
2019,03,28,01,44,3.70
2019,03,28,01,45,3.70
2019,03,28,01,46,3.70
2019,03,28,01,47,3.70
2019,03,28,01,48,3.70
2019,03,28,01,49,3.70
2019,03,28,01,50,3.70
2019,03,28,01,51,3.70
2019,03,28,01,52,3.70
2019,03,28,01,53,3.70
2019,03,28,01,54,3.70
2019,03,28,01,55,3.70
2019,03,28,01,56,3.70
2019,03,28,01,57,3.70
2019,03,28,01,58,3.70
2019,03,28,01,59,3.70
2019,03,28,02,00,3.70
2019,03,28,02,01,3.60
2019,03,28,02,02,3.60
2019,03,28,02,03,3.60
2019,03,28,02,04,3.60
2019,03,28,02,05,3.60
2019,03,28,02,06,3.60
2019,03,28,02,07,3.60
2019,03,28,02,08,3.50
2019,03,28,02,09,3.50
2019,03,28,02,10,3.50
2019,03,28,02,11,3.50
2019,03,28,02,12,3.50
2019,03,28,02,13,3.50
2019,03,28,02,14,3.50
2019,03,28,02,15,3.50
2019,03,28,02,16,3.50
2019,03,28,02,17,3.50
2019,03,28,02,18,3.50
2019,03,28,02,19,3.50
2019,03,28,02,20,3.50
2019,03,28,02,21,3.50
2019,03,28,02,22,3.50
2019,03,28,02,23,3.50
2019,03,28,02,24,3.50
2019,03,28,02,25,3.50
2019,03,28,02,26,3.50
2019,03,28,02,27,3.50
2019,03,28,02,28,3.50
2019,03,28,02,29,3.60
2019,03,28,02,30,3.60
2019,03,28,02,31,3.60
2019,03,28,02,32,3.60
2019,03,28,02,33,3.70
2019,03,28,02,34,3.70
2019,03,28,02,35,3.70
2019,03,28,02,36,3.70
2019,03,28,02,37,3.70
2019,03,28,02,38,3.70
2019,03,28,02,39,3.70
2019,03,28,02,40,3.70
2019,03,28,02,41,3.80
2019,03,28,02,42,3.80
2019,03,28,02,43,3.80
2019,03,28,02,44,3.80
2019,03,28,02,45,3.80
2019,03,28,02,46,3.80
2019,03,28,02,47,3.90
2019,03,28,02,48,3.90
2019,03,28,02,49,3.90
2019,03,28,02,50,3.90
2019,03,28,02,51,3.90
2019,03,28,02,52,3.90
2019,03,28,02,53,3.90
2019,03,28,02,54,3.90
2019,03,28,02,55,3.90
2019,03,28,02,56,3.90
2019,03,28,02,57,3.90
2019,03,28,02,58,3.90
2019,03,28,02,59,4.00
2019,03,28,03,00,4.00
2019,03,28,03,01,4.00
2019,03,28,03,02,4.00
2019,03,28,03,03,4.10
2019,03,28,03,04,4.10
2019,03,28,03,05,4.10
2019,03,28,03,06,4.10
2019,03,28,03,07,4.10
2019,03,28,03,08,4.10
2019,03,28,03,09,4.20
2019,03,28,03,10,4.20
2019,03,28,03,11,4.20
2019,03,28,03,12,4.20
2019,03,28,03,13,4.20
2019,03,28,03,14,4.20
2019,03,28,03,15,4.20
2019,03,28,03,16,4.30
2019,03,28,03,17,4.30
2019,03,28,03,18,4.30
2019,03,28,03,19,4.30
2019,03,28,03,20,4.30
2019,03,28,03,21,4.30
2019,03,28,03,22,4.30
2019,03,28,03,23,4.30
2019,03,28,03,24,4.30
2019,03,28,03,25,4.30
2019,03,28,03,26,4.40
2019,03,28,03,27,4.40
2019,03,28,03,28,4.40
2019,03,28,03,29,4.40
2019,03,28,03,30,4.40
2019,03,28,03,31,4.40
2019,03,28,03,32,4.40
2019,03,28,03,33,4.40
2019,03,28,03,34,4.40
2019,03,28,03,35,4.40
2019,03,28,03,36,4.40
2019,03,28,03,37,4.40
2019,03,28,03,38,4.40
2019,03,28,03,39,4.40
2019,03,28,03,40,4.40
2019,03,28,03,41,4.40
2019,03,28,03,42,4.50
2019,03,28,03,43,4.50
2019,03,28,03,44,4.50
2019,03,28,03,45,4.50
2019,03,28,03,46,4.50
2019,03,28,03,47,4.50
2019,03,28,03,48,4.60
2019,03,28,03,49,4.60
2019,03,28,03,50,4.60
2019,03,28,03,51,4.60
2019,03,28,03,52,4.60
2019,03,28,03,53,4.60
2019,03,28,03,54,4.70
2019,03,28,03,55,4.70
2019,03,28,03,56,4.70
2019,03,28,03,57,4.70
2019,03,28,03,58,4.70
2019,03,28,03,59,4.70
2019,03,28,04,00,4.70
2019,03,28,04,01,4.70
2019,03,28,04,02,4.70
2019,03,28,04,03,4.80
2019,03,28,04,04,4.80
2019,03,28,04,05,4.80
2019,03,28,04,06,4.80
2019,03,28,04,07,4.80
2019,03,28,04,08,4.80
2019,03,28,04,09,4.80
2019,03,28,04,10,4.80
2019,03,28,04,11,4.80
2019,03,28,04,12,4.90
2019,03,28,04,13,4.90
2019,03,28,04,14,4.90
2019,03,28,04,15,4.90
2019,03,28,04,16,4.90
2019,03,28,04,17,4.90
2019,03,28,04,18,4.90
2019,03,28,04,19,4.90
2019,03,28,04,20,4.90
2019,03,28,04,21,4.90
2019,03,28,04,22,4.90
2019,03,28,04,23,4.90
2019,03,28,04,24,4.90
2019,03,28,04,25,4.90
2019,03,28,04,26,4.90
2019,03,28,04,27,4.90
2019,03,28,04,28,4.90
2019,03,28,04,29,4.90
2019,03,28,04,30,4.90
2019,03,28,04,31,4.90
2019,03,28,04,32,4.90
2019,03,28,04,33,4.90
2019,03,28,04,34,4.90
2019,03,28,04,35,4.90
2019,03,28,04,36,4.90
2019,03,28,04,37,4.90
2019,03,28,04,38,4.90
2019,03,28,04,39,4.90
2019,03,28,04,40,4.90
2019,03,28,04,41,4.90
2019,03,28,04,42,4.90
2019,03,28,04,43,4.90
2019,03,28,04,44,4.90
2019,03,28,04,45,4.90
2019,03,28,04,46,4.90
2019,03,28,04,47,4.90
2019,03,28,04,48,4.90
2019,03,28,04,49,4.80
2019,03,28,04,50,4.80
2019,03,28,04,51,4.80
2019,03,28,04,52,4.80
2019,03,28,04,53,4.80
2019,03,28,04,54,4.80
2019,03,28,04,55,4.90
2019,03,28,04,56,4.90
2019,03,28,04,57,4.90
2019,03,28,04,58,4.90
2019,03,28,04,59,4.90
2019,03,28,05,00,4.90
2019,03,28,05,01,4.90
2019,03,28,05,02,4.90
2019,03,28,05,03,4.90
2019,03,28,05,04,4.90
2019,03,28,05,05,4.90
2019,03,28,05,06,4.90
2019,03,28,05,07,4.90
2019,03,28,05,08,4.90
2019,03,28,05,09,4.90
2019,03,28,05,10,4.90
2019,03,28,05,11,4.90
2019,03,28,05,12,4.90
2019,03,28,05,13,4.90
2019,03,28,05,14,4.90
2019,03,28,05,15,5.00
2019,03,28,05,16,4.90
2019,03,28,05,17,5.00
2019,03,28,05,18,5.00
2019,03,28,05,19,5.00
2019,03,28,05,20,5.00
2019,03,28,05,21,5.00
2019,03,28,05,22,5.00
2019,03,28,05,23,5.00
2019,03,28,05,24,5.00
2019,03,28,05,25,5.00
2019,03,28,05,26,5.00
2019,03,28,05,27,5.00
2019,03,28,05,28,5.00
2019,03,28,05,29,5.00
2019,03,28,05,30,5.00
2019,03,28,05,31,5.10
2019,03,28,05,32,5.10
2019,03,28,05,33,5.10
2019,03,28,05,34,5.10
2019,03,28,05,35,5.10
2019,03,28,05,36,5.10
2019,03,28,05,37,5.10
2019,03,28,05,38,5.10
2019,03,28,05,39,5.10
2019,03,28,05,40,5.20
2019,03,28,05,41,5.30
2019,03,28,05,42,5.40
2019,03,28,05,43,5.50
2019,03,28,05,44,5.70
2019,03,28,05,45,5.90
2019,03,28,05,46,6.00
2019,03,28,05,47,6.20
2019,03,28,05,48,6.30
2019,03,28,05,49,6.40
2019,03,28,05,50,6.60
2019,03,28,05,51,6.70
2019,03,28,05,52,6.80
2019,03,28,05,53,6.90
2019,03,28,05,54,7.00
2019,03,28,05,55,7.10
2019,03,28,05,56,7.30
2019,03,28,05,57,7.40
2019,03,28,05,58,7.50
2019,03,28,05,59,7.50
2019,03,28,06,00,7.60
2019,03,28,06,01,7.70
2019,03,28,06,02,7.70
2019,03,28,06,03,7.70
2019,03,28,06,04,7.80
2019,03,28,06,05,7.70
2019,03,28,06,06,7.70
2019,03,28,06,07,7.70
2019,03,28,06,08,7.60
2019,03,28,06,09,7.60
2019,03,28,06,10,7.50
2019,03,28,06,11,7.40
2019,03,28,06,12,7.30
2019,03,28,06,13,7.20
2019,03,28,06,14,7.20
2019,03,28,06,15,7.10
2019,03,28,06,16,7.00
2019,03,28,06,17,7.00
2019,03,28,06,18,6.90
2019,03,28,06,19,6.90
2019,03,28,06,20,6.80
2019,03,28,06,21,6.80
2019,03,28,06,22,6.80
2019,03,28,06,23,6.80
2019,03,28,06,24,6.80
2019,03,28,06,25,6.80
2019,03,28,06,26,6.80
2019,03,28,06,27,6.70
2019,03,28,06,28,6.70
2019,03,28,06,29,6.70
2019,03,28,06,30,6.70
2019,03,28,06,31,6.80
2019,03,28,06,32,6.80
2019,03,28,06,33,6.80
2019,03,28,06,34,6.80
2019,03,28,06,35,6.90
2019,03,28,06,36,7.00
2019,03,28,06,37,7.00
2019,03,28,06,38,7.10
2019,03,28,06,39,7.20
2019,03,28,06,40,7.20
2019,03,28,06,41,7.20
2019,03,28,06,42,7.30
2019,03,28,06,43,7.40
2019,03,28,06,44,7.40
2019,03,28,06,45,7.50
2019,03,28,06,46,7.60
2019,03,28,06,47,7.60
2019,03,28,06,48,7.60
2019,03,28,06,49,7.70
2019,03,28,06,50,7.70
2019,03,28,06,51,7.80
2019,03,28,06,52,7.80
2019,03,28,06,53,7.90
2019,03,28,06,54,7.90
2019,03,28,06,55,7.90
2019,03,28,06,56,7.90
2019,03,28,06,57,7.90
2019,03,28,06,58,7.90
2019,03,28,06,59,7.90
2019,03,28,07,00,7.90
2019,03,28,07,01,7.90
2019,03,28,07,02,7.90
2019,03,28,07,03,7.90
2019,03,28,07,04,8.00
2019,03,28,07,05,8.00
2019,03,28,07,06,8.00
2019,03,28,07,07,7.90
2019,03,28,07,08,7.90
2019,03,28,07,09,7.90
2019,03,28,07,10,7.90
2019,03,28,07,11,7.90
2019,03,28,07,12,7.90
2019,03,28,07,13,7.90
2019,03,28,07,14,7.90
2019,03,28,07,15,7.90
2019,03,28,07,16,7.90
2019,03,28,07,17,7.90
2019,03,28,07,18,7.90
2019,03,28,07,19,7.90
2019,03,28,07,20,7.90
2019,03,28,07,21,7.90
2019,03,28,07,22,7.90
2019,03,28,07,23,7.90
2019,03,28,07,24,7.90
2019,03,28,07,25,7.90
2019,03,28,07,26,7.90
2019,03,28,07,27,7.90
2019,03,28,07,28,7.90
2019,03,28,07,29,7.90
2019,03,28,07,30,7.90
2019,03,28,07,31,7.90
2019,03,28,07,32,7.90
2019,03,28,07,33,7.90
2019,03,28,07,34,7.90
2019,03,28,07,35,7.90
2019,03,28,07,36,7.90
2019,03,28,07,37,7.90
2019,03,28,07,38,7.90
2019,03,28,07,39,7.90
2019,03,28,07,40,7.90
2019,03,28,07,41,7.90
2019,03,28,07,42,7.90
2019,03,28,07,43,7.90
2019,03,28,07,44,7.90
2019,03,28,07,45,7.90
2019,03,28,07,46,7.90
2019,03,28,07,47,7.90
2019,03,28,07,48,7.90
2019,03,28,07,49,7.80
2019,03,28,07,50,7.80
2019,03,28,07,51,7.80
2019,03,28,07,52,7.70
2019,03,28,07,53,7.60
2019,03,28,07,54,7.60
2019,03,28,07,55,7.60
2019,03,28,07,56,7.50
2019,03,28,07,57,7.50
2019,03,28,07,58,7.40
2019,03,28,07,59,7.40
2019,03,28,08,00,7.40
2019,03,28,08,01,7.40
2019,03,28,08,02,7.40
2019,03,28,08,03,7.40
2019,03,28,08,04,7.40
2019,03,28,08,05,7.40
2019,03,28,08,06,7.40
2019,03,28,08,07,7.40
2019,03,28,08,08,7.40
2019,03,28,08,09,7.40
2019,03,28,08,10,7.40
2019,03,28,08,11,7.50
2019,03,28,08,12,7.50
2019,03,28,08,13,7.50
2019,03,28,08,14,7.50
2019,03,28,08,15,7.70
2019,03,28,08,16,7.70
2019,03,28,08,17,7.80
2019,03,28,08,18,7.80
2019,03,28,08,19,7.80
2019,03,28,08,20,7.90
2019,03,28,08,21,7.90
2019,03,28,08,22,7.90
2019,03,28,08,23,8.00
2019,03,28,08,24,8.00
2019,03,28,08,25,8.10
2019,03,28,08,26,8.10
2019,03,28,08,27,8.10
2019,03,28,08,28,8.20
2019,03,28,08,29,8.20
2019,03,28,08,30,8.30
2019,03,28,08,31,8.30
2019,03,28,08,32,8.30
2019,03,28,08,33,8.30
2019,03,28,08,34,8.30
2019,03,28,08,35,8.40
2019,03,28,08,36,8.40
2019,03,28,08,37,8.40
2019,03,28,08,38,8.40
2019,03,28,08,39,8.40
2019,03,28,08,40,8.30
2019,03,28,08,41,8.30
2019,03,28,08,42,8.20
2019,03,28,08,43,8.20
2019,03,28,08,44,8.10
2019,03,28,08,45,8.10
2019,03,28,08,46,8.00
2019,03,28,08,47,8.00
2019,03,28,08,48,7.90
2019,03,28,08,49,7.90
2019,03,28,08,50,7.90
2019,03,28,08,51,7.90
2019,03,28,08,52,7.80
2019,03,28,08,53,7.90
2019,03,28,08,54,7.90
2019,03,28,08,55,8.00
2019,03,28,08,56,8.10
2019,03,28,08,57,8.10
2019,03,28,08,58,8.20
2019,03,28,08,59,8.30
2019,03,28,09,00,8.40
2019,03,28,09,01,8.50
2019,03,28,09,02,8.60
2019,03,28,09,03,8.70
2019,03,28,09,04,8.70
2019,03,28,09,05,8.80
2019,03,28,09,06,8.90
2019,03,28,09,07,8.90
2019,03,28,09,08,9.00
2019,03,28,09,09,9.10
2019,03,28,09,10,9.20
2019,03,28,09,11,9.30
2019,03,28,09,12,9.40
2019,03,28,09,13,9.40
2019,03,28,09,14,9.50
2019,03,28,09,15,9.60
2019,03,28,09,16,9.60
2019,03,28,09,17,9.60
2019,03,28,09,18,9.60
2019,03,28,09,19,9.60
2019,03,28,09,20,9.60
2019,03,28,09,21,9.60
2019,03,28,09,22,9.70
2019,03,28,09,23,9.70
2019,03,28,09,24,9.70
2019,03,28,09,25,9.80
2019,03,28,09,26,9.80
2019,03,28,09,27,9.90
2019,03,28,09,28,9.90
2019,03,28,09,29,9.90
2019,03,28,09,30,10.00
2019,03,28,09,31,10.00
2019,03,28,09,32,10.10
2019,03,28,09,33,10.20
2019,03,28,09,34,10.30
2019,03,28,09,35,10.40
2019,03,28,09,36,10.50
2019,03,28,09,37,10.60
2019,03,28,09,38,10.60
2019,03,28,09,39,10.70
2019,03,28,09,40,10.70
2019,03,28,09,41,10.70
2019,03,28,09,42,10.70
2019,03,28,09,43,10.60
2019,03,28,09,44,10.60
2019,03,28,09,45,10.60
2019,03,28,09,46,10.60
2019,03,28,09,47,10.60
2019,03,28,09,48,10.60
2019,03,28,09,49,10.70
2019,03,28,09,50,10.80
2019,03,28,09,51,10.80
2019,03,28,09,52,10.90
2019,03,28,09,53,11.00
2019,03,28,09,54,11.10
2019,03,28,09,55,11.10
2019,03,28,09,56,11.10
2019,03,28,09,57,11.10
2019,03,28,09,58,11.10
2019,03,28,09,59,11.10
2019,03,28,10,00,11.10
2019,03,28,10,01,11.00
2019,03,28,10,02,11.00
2019,03,28,10,03,11.00
2019,03,28,10,04,11.10
2019,03,28,10,05,11.10
2019,03,28,10,06,11.10
2019,03,28,10,07,11.20
2019,03,28,10,08,11.30
2019,03,28,10,09,11.30
2019,03,28,10,10,11.30
2019,03,28,10,11,11.40
2019,03,28,10,12,11.40
2019,03,28,10,13,11.40
2019,03,28,10,14,11.40
2019,03,28,10,15,11.40
2019,03,28,10,16,11.40
2019,03,28,10,17,11.40
2019,03,28,10,18,11.40
2019,03,28,10,19,11.50
2019,03,28,10,20,11.50
2019,03,28,10,21,11.50
2019,03,28,10,22,11.50
2019,03,28,10,23,11.50
2019,03,28,10,24,11.50
2019,03,28,10,25,11.50
2019,03,28,10,26,11.50
2019,03,28,10,27,11.60
2019,03,28,10,28,11.60
2019,03,28,10,29,11.70
2019,03,28,10,30,11.70
2019,03,28,10,31,11.70
2019,03,28,10,32,11.80
2019,03,28,10,33,11.90
2019,03,28,10,34,11.90
2019,03,28,10,35,12.10
2019,03,28,10,36,12.10
2019,03,28,10,37,12.20
2019,03,28,10,38,12.30
2019,03,28,10,39,12.40
2019,03,28,10,40,12.40
2019,03,28,10,41,12.40
2019,03,28,10,42,12.50
2019,03,28,10,43,12.50
2019,03,28,10,44,12.50
2019,03,28,10,45,12.60
2019,03,28,10,46,12.60
2019,03,28,10,47,12.70
2019,03,28,10,48,12.70
2019,03,28,10,49,12.80
2019,03,28,10,50,12.80
2019,03,28,10,51,12.70
2019,03,28,10,52,12.70
2019,03,28,10,53,12.70
2019,03,28,10,54,12.70
2019,03,28,10,55,12.70
2019,03,28,10,56,12.70
2019,03,28,10,57,12.70
2019,03,28,10,58,12.70
2019,03,28,10,59,12.70
2019,03,28,11,00,12.80
2019,03,28,11,01,12.90
2019,03,28,11,02,13.00
2019,03,28,11,03,13.00
2019,03,28,11,04,13.10
2019,03,28,11,05,13.10
2019,03,28,11,06,13.10
2019,03,28,11,07,13.10
2019,03,28,11,08,13.10
2019,03,28,11,09,13.20
2019,03,28,11,10,13.20
2019,03,28,11,11,13.30
2019,03,28,11,12,13.40
2019,03,28,11,13,13.40
2019,03,28,11,14,13.40
2019,03,28,11,15,13.40
2019,03,28,11,16,13.40
2019,03,28,11,17,13.50
2019,03,28,11,18,13.50
2019,03,28,11,19,13.50
2019,03,28,11,20,13.50
2019,03,28,11,21,13.50
2019,03,28,11,22,13.40
2019,03,28,11,23,13.40
2019,03,28,11,24,13.30
2019,03,28,11,25,13.30
2019,03,28,11,26,13.30
2019,03,28,11,27,13.30
2019,03,28,11,28,13.30
2019,03,28,11,29,13.40
2019,03,28,11,30,13.40
2019,03,28,11,31,13.50
2019,03,28,11,32,13.60
2019,03,28,11,33,13.70
2019,03,28,11,34,13.80
2019,03,28,11,35,13.80
2019,03,28,11,36,13.80
2019,03,28,11,37,13.90
2019,03,28,11,38,13.80
2019,03,28,11,39,13.80
2019,03,28,11,40,13.80
2019,03,28,11,41,13.80
2019,03,28,11,42,13.80
2019,03,28,11,43,13.80
2019,03,28,11,44,13.80
2019,03,28,11,45,13.80
2019,03,28,11,46,13.80
2019,03,28,11,47,13.80
2019,03,28,11,48,13.90
2019,03,28,11,49,13.90
2019,03,28,11,50,13.80
2019,03,28,11,51,13.80
2019,03,28,11,52,13.70
2019,03,28,11,53,13.70
2019,03,28,11,54,13.80
2019,03,28,11,55,13.90
2019,03,28,11,56,14.00
2019,03,28,11,57,14.10
2019,03,28,11,58,14.20
2019,03,28,11,59,14.30
2019,03,28,12,00,14.40
2019,03,28,12,01,14.50
2019,03,28,12,02,14.60
2019,03,28,12,03,14.60
2019,03,28,12,04,14.60
2019,03,28,12,05,14.60
2019,03,28,12,06,14.60
2019,03,28,12,07,14.60
2019,03,28,12,08,14.60
2019,03,28,12,09,14.60
2019,03,28,12,10,14.50
2019,03,28,12,11,14.60
2019,03,28,12,12,14.60
2019,03,28,12,13,14.60
2019,03,28,12,14,14.50
2019,03,28,12,15,14.50
2019,03,28,12,16,14.40
2019,03,28,12,17,14.20
2019,03,28,12,18,14.10
2019,03,28,12,19,13.90
2019,03,28,12,20,13.90
2019,03,28,12,21,13.80
2019,03,28,12,22,13.80
2019,03,28,12,23,13.80
2019,03,28,12,24,13.80
2019,03,28,12,25,13.80
2019,03,28,12,26,13.60
2019,03,28,12,27,13.40
2019,03,28,12,28,13.20
2019,03,28,12,29,13.10
2019,03,28,12,30,13.00
2019,03,28,12,31,13.00
2019,03,28,12,32,12.90
2019,03,28,12,33,12.80
2019,03,28,12,34,12.80
2019,03,28,12,35,12.70
2019,03,28,12,36,12.60
2019,03,28,12,37,12.60
2019,03,28,12,38,12.60
2019,03,28,12,39,12.60
2019,03,28,12,40,12.70
2019,03,28,12,41,12.70
2019,03,28,12,42,12.70
2019,03,28,12,43,12.70
2019,03,28,12,44,12.70
2019,03,28,12,45,12.70
2019,03,28,12,46,12.60
2019,03,28,12,47,12.50
2019,03,28,12,48,12.40
2019,03,28,12,49,12.30
2019,03,28,12,50,12.30
2019,03,28,12,51,12.30
2019,03,28,12,52,12.40
2019,03,28,12,53,12.50
2019,03,28,12,54,12.50
2019,03,28,12,55,12.60
2019,03,28,12,56,12.70
2019,03,28,12,57,12.60
2019,03,28,12,58,12.60
2019,03,28,12,59,12.50
2019,03,28,13,00,12.40
2019,03,28,13,01,12.40
2019,03,28,13,02,12.40
2019,03,28,13,03,12.40
2019,03,28,13,04,12.40
2019,03,28,13,05,12.40
2019,03,28,13,06,12.40
2019,03,28,13,07,12.30
2019,03,28,13,08,12.30
2019,03,28,13,09,12.30
2019,03,28,13,10,12.30
2019,03,28,13,11,12.30
2019,03,28,13,12,12.20
2019,03,28,13,13,12.10
2019,03,28,13,14,12.00
2019,03,28,13,15,12.10
2019,03,28,13,16,12.10
2019,03,28,13,17,12.20
2019,03,28,13,18,12.30
2019,03,28,13,19,12.30
2019,03,28,13,20,12.40
2019,03,28,13,21,12.40
2019,03,28,13,22,12.40
2019,03,28,13,23,12.40
2019,03,28,13,24,12.40
2019,03,28,13,25,12.40
2019,03,28,13,26,12.40
2019,03,28,13,27,12.40
2019,03,28,13,28,12.40
2019,03,28,13,29,12.40
2019,03,28,13,30,12.40
2019,03,28,13,31,12.40
2019,03,28,13,32,12.40
2019,03,28,13,33,12.30
2019,03,28,13,34,12.20
2019,03,28,13,35,12.20
2019,03,28,13,36,12.10
2019,03,28,13,37,12.10
2019,03,28,13,38,12.10
2019,03,28,13,39,12.10
2019,03,28,13,40,11.90
2019,03,28,13,41,11.90
2019,03,28,13,42,11.90
2019,03,28,13,43,11.90
2019,03,28,13,44,11.90
2019,03,28,13,45,11.90
2019,03,28,13,46,11.90
2019,03,28,13,47,11.90
2019,03,28,13,48,12.00
2019,03,28,13,49,12.10
2019,03,28,13,50,12.10
2019,03,28,13,51,12.10
2019,03,28,13,52,12.00
2019,03,28,13,53,12.00
2019,03,28,13,54,12.10
2019,03,28,13,55,12.10
2019,03,28,13,56,12.10
2019,03,28,13,57,12.10
2019,03,28,13,58,12.10
2019,03,28,13,59,12.10
2019,03,28,14,00,12.10
2019,03,28,14,01,12.10
2019,03,28,14,02,12.10
2019,03,28,14,03,12.10
2019,03,28,14,04,12.20
2019,03,28,14,05,12.20
2019,03,28,14,06,12.30
2019,03,28,14,07,12.40
2019,03,28,14,08,12.50
2019,03,28,14,09,12.60
2019,03,28,14,10,12.60
2019,03,28,14,11,12.60
2019,03,28,14,12,12.50
2019,03,28,14,13,12.50
2019,03,28,14,14,12.50
2019,03,28,14,15,12.50
2019,03,28,14,16,12.60
2019,03,28,14,17,12.60
2019,03,28,14,18,12.60
2019,03,28,14,19,12.60
2019,03,28,14,20,12.60
2019,03,28,14,21,12.60
2019,03,28,14,22,12.60
2019,03,28,14,23,12.60
2019,03,28,14,24,12.60
2019,03,28,14,25,12.60
2019,03,28,14,26,12.70
2019,03,28,14,27,12.70
2019,03,28,14,28,12.70
2019,03,28,14,29,12.70
2019,03,28,14,30,12.60
2019,03,28,14,31,12.60
2019,03,28,14,32,12.70
2019,03,28,14,33,12.80
2019,03,28,14,34,12.80
2019,03,28,14,35,12.90
2019,03,28,14,36,12.80
2019,03,28,14,37,12.80
2019,03,28,14,38,12.70
2019,03,28,14,39,12.60
2019,03,28,14,40,12.60
2019,03,28,14,41,12.60
2019,03,28,14,42,12.60
2019,03,28,14,43,12.60
2019,03,28,14,44,12.60
2019,03,28,14,45,12.60
2019,03,28,14,46,12.70
2019,03,28,14,47,12.70
2019,03,28,14,48,12.70
2019,03,28,14,49,12.70
2019,03,28,14,50,12.80
2019,03,28,14,51,12.80
2019,03,28,14,52,12.80
2019,03,28,14,53,12.90
2019,03,28,14,54,13.00
2019,03,28,14,55,13.00
2019,03,28,14,56,13.00
2019,03,28,14,57,13.00
2019,03,28,14,58,13.00
2019,03,28,14,59,13.00
2019,03,28,15,00,13.10
2019,03,28,15,01,13.10
2019,03,28,15,02,13.20
2019,03,28,15,03,13.20
2019,03,28,15,04,13.20
2019,03,28,15,05,13.30
2019,03,28,15,06,13.30
2019,03,28,15,07,13.30
2019,03,28,15,08,13.30
2019,03,28,15,09,13.30
2019,03,28,15,10,13.30
2019,03,28,15,11,13.30
2019,03,28,15,12,13.40
2019,03,28,15,13,13.40
2019,03,28,15,14,13.40
2019,03,28,15,15,13.40
2019,03,28,15,16,13.50
2019,03,28,15,17,13.60
2019,03,28,15,18,13.60
2019,03,28,15,19,13.70
2019,03,28,15,20,13.80
2019,03,28,15,21,13.80
2019,03,28,15,22,13.80
2019,03,28,15,23,13.80
2019,03,28,15,24,13.80
2019,03,28,15,25,13.80
2019,03,28,15,26,13.80
2019,03,28,15,27,13.80
2019,03,28,15,28,13.80
2019,03,28,15,29,13.80
2019,03,28,15,30,13.80
2019,03,28,15,31,13.80
2019,03,28,15,32,13.70
2019,03,28,15,33,13.50
2019,03,28,15,34,13.40
2019,03,28,15,35,13.20
2019,03,28,15,36,13.10
2019,03,28,15,37,13.10
2019,03,28,15,38,13.10
2019,03,28,15,39,13.00
2019,03,28,15,40,13.00
2019,03,28,15,41,13.00
2019,03,28,15,42,12.90
2019,03,28,15,43,13.00
2019,03,28,15,44,13.00
2019,03,28,15,45,12.90
2019,03,28,15,46,12.90
2019,03,28,15,47,13.00
2019,03,28,15,48,13.10
2019,03,28,15,49,13.20
2019,03,28,15,50,13.30
2019,03,28,15,51,13.40
2019,03,28,15,52,13.50
2019,03,28,15,53,13.50
2019,03,28,15,54,13.60
2019,03,28,15,55,13.60
2019,03,28,15,56,13.60
2019,03,28,15,57,13.60
2019,03,28,15,58,13.70
2019,03,28,15,59,13.70
2019,03,28,16,00,13.80
2019,03,28,16,01,13.80
2019,03,28,16,02,13.90
2019,03,28,16,03,13.90
2019,03,28,16,04,13.90
2019,03,28,16,05,13.90
2019,03,28,16,06,13.90
2019,03,28,16,07,13.90
2019,03,28,16,08,13.90
2019,03,28,16,09,14.00
2019,03,28,16,10,14.00
2019,03,28,16,11,14.10
2019,03,28,16,12,14.10
2019,03,28,16,13,14.20
2019,03,28,16,14,14.20
2019,03,28,16,15,14.20
2019,03,28,16,16,14.30
2019,03,28,16,17,14.30
2019,03,28,16,18,14.20
2019,03,28,16,19,14.20
2019,03,28,16,20,14.20
2019,03,28,16,21,14.20
2019,03,28,16,22,14.20
2019,03,28,16,23,14.20
2019,03,28,16,24,14.20
2019,03,28,16,25,14.20
2019,03,28,16,26,14.30
2019,03,28,16,27,14.20
2019,03,28,16,28,14.20
2019,03,28,16,29,14.30
2019,03,28,16,30,14.30
2019,03,28,16,31,14.20
2019,03,28,16,32,14.20
2019,03,28,16,33,14.20
2019,03,28,16,34,14.20
2019,03,28,16,35,14.20
2019,03,28,16,36,14.20
2019,03,28,16,37,14.20
2019,03,28,16,38,14.20
2019,03,28,16,39,14.20
2019,03,28,16,40,14.30
2019,03,28,16,41,14.30
2019,03,28,16,42,14.30
2019,03,28,16,43,14.30
2019,03,28,16,44,14.30
2019,03,28,16,45,14.20
2019,03,28,16,46,14.20
2019,03,28,16,47,14.20
2019,03,28,16,48,14.20
2019,03,28,16,49,14.10
2019,03,28,16,50,14.00
2019,03,28,16,51,14.00
2019,03,28,16,52,14.00
2019,03,28,16,53,14.00
2019,03,28,16,54,14.00
2019,03,28,16,55,14.00
2019,03,28,16,56,14.00
2019,03,28,16,57,14.10
2019,03,28,16,58,14.00
2019,03,28,16,59,14.00
2019,03,28,17,00,14.10
2019,03,28,17,01,14.00
2019,03,28,17,02,13.90
2019,03,28,17,03,13.90
2019,03,28,17,04,13.90
2019,03,28,17,05,13.90
2019,03,28,17,06,13.90
2019,03,28,17,07,13.90
2019,03,28,17,08,13.90
2019,03,28,17,09,13.80
2019,03,28,17,10,13.70
2019,03,28,17,11,13.60
2019,03,28,17,12,13.50
2019,03,28,17,13,13.40
2019,03,28,17,14,13.40
2019,03,28,17,15,13.50
2019,03,28,17,16,13.50
2019,03,28,17,17,13.50
2019,03,28,17,18,13.50
2019,03,28,17,19,13.50
2019,03,28,17,20,13.50
2019,03,28,17,21,13.40
2019,03,28,17,22,13.40
2019,03,28,17,23,13.50
2019,03,28,17,24,13.60
2019,03,28,17,25,13.60
2019,03,28,17,26,13.70
2019,03,28,17,27,13.70
2019,03,28,17,28,13.70
2019,03,28,17,29,13.80
2019,03,28,17,30,13.90
2019,03,28,17,31,14.00
2019,03,28,17,32,14.10
2019,03,28,17,33,14.00
2019,03,28,17,34,13.90
2019,03,28,17,35,13.90
2019,03,28,17,36,13.90
2019,03,28,17,37,13.90
2019,03,28,17,38,14.00
2019,03,28,17,39,14.00
2019,03,28,17,40,14.00
2019,03,28,17,41,13.90
2019,03,28,17,42,13.90
2019,03,28,17,43,13.80
2019,03,28,17,44,13.80